Location: Marcé
(47.5801°N, 0.3280°W)
Time: 17:43:06
(UTC+01:00)

Tiros 1 - Pass Details

Date: 08 December 2021
Orbit: 629 x 664 km, 48.4° (Epoch: 26 January)

Event Time Altitude Azimuth Distance (km) Brightness Sun altitude
Rises 21:28:53 0° 280° (W) 2,932 11.3 -42.5°
Enters shadow 21:30:40 - 280° (W) 2,231 10.6 -42.8°
Reaches altitude 10° 21:31:12 10° 280° (W) 2,027 - -42.9°
Maximum altitude 21:35:53 88° 12° (NNE) 648 - -43.7°
Drops below altitude 10° 21:40:37 10° 101° (E) 2,047 - -44.5°
Sets 21:42:58 0° 102° (ESE) 2,962 - -44.8°
